Date String (YYYY-MM-DD hh:mm:ss) UTC,Instrument flags,Ambient pressure (hPa),Sample flow (lpm),Bypass flow (lpm),Sample temperature (°C),Ambient temperature (°C),ASC tube jacket temperature (°C),LED temperature (°C),Box temperature (°C),Sample RH (%),Span deviation,Mass concentration (μg/m³),Mass concentration (μg/m³),Mass concentration (μg/m³)
DateTimeUTC,F1_M11,P_M11,Q1_M11,Q2_M11,T1_M11,T2_M11,T3_M11,T4_M11,T5_M11,U1_M11,ZSPAN_M11,X0_M11,X2_M11,X1_M11
2022-08-19 02:00:00,,0828.9,5.00,0.00,29.3,27.3,00.0,38.1,31.0,22.8,0000.0,0015.79,0006.82,0005.88
2022-08-19 02:01:00,,0828.9,5.01,0.00,29.3,27.5,00.0,38.1,31.1,23.0,0000.0,0015.71,0006.82,0005.85
2022-08-19 02:02:00,,0828.9,4.99,0.00,29.3,27.7,00.0,38.1,31.2,23.1,0000.0,0015.87,0006.82,0005.82
2022-08-19 02:03:00,,0828.9,5.00,0.00,29.3,27.9,00.0,38.1,31.3,22.7,0000.0,0016.73,0006.82,0005.80
2022-08-19 02:04:00,,0828.9,5.00,0.00,29.4,28.1,00.0,38.1,31.3,22.7,0000.0,0017.89,0006.79,0005.76
2022-08-19 02:05:00,,0828.9,5.00,0.00,29.4,28.2,00.0,38.1,31.4,22.5,0000.0,0018.12,0006.72,0005.73
2022-08-19 02:06:00,,0828.9,5.01,0.00,29.5,28.4,00.0,38.1,31.5,22.6,0000.0,0017.25,0006.67,0005.69
2022-08-19 02:07:00,,0828.9,5.00,0.00,29.5,28.5,00.0,38.2,31.5,22.4,0000.0,0016.30,0006.61,0005.66
2022-08-19 02:08:00,,0828.9,5.00,0.00,29.6,28.5,00.0,38.2,31.5,22.2,0000.0,0015.97,0006.55,0005.62
2022-08-19 02:09:00,,0828.9,5.01,0.00,29.5,27.7,00.0,38.1,31.3,22.2,0000.0,0016.09,0006.51,0005.59
2022-08-19 02:10:00,,0829.0,5.01,0.00,29.4,27.2,00.0,38.1,31.1,22.2,0000.0,0015.20,0006.49,0005.55
2022-08-19 02:11:00,,0828.8,4.99,0.00,29.4,27.0,00.0,38.1,31.0,22.5,0000.0,0014.84,0006.49,0005.54
2022-08-19 02:12:00,,0828.9,5.00,0.00,29.3,27.1,00.0,38.1,31.0,22.8,0000.0,0014.95,0006.52,0005.55
2022-08-19 02:13:00,,0828.9,5.01,0.00,29.3,27.3,00.0,38.1,31.0,22.9,0000.0,0014.62,0006.49,0005.53
2022-08-19 02:14:00,,0828.9,5.00,0.00,29.3,27.5,00.0,38.1,31.1,22.9,0000.0,0013.81,0006.48,0005.51
2022-08-19 02:15:00,,0828.9,4.99,0.00,29.3,27.7,00.0,38.1,31.2,22.9,0000.0,0013.47,0006.49,0005.50
2022-08-19 02:16:00,,0828.9,4.99,0.00,29.3,27.9,00.0,38.1,31.2,22.9,0000.0,0013.81,0006.50,0005.49
2022-08-19 02:17:00,,0828.9,5.00,0.00,29.3,28.0,00.0,38.1,31.3,22.9,0000.0,0014.06,0006.51,0005.50
2022-08-19 02:18:00,,0828.9,5.01,0.00,29.4,28.2,00.0,38.1,31.4,22.9,0000.0,0014.08,0006.51,0005.49
2022-08-19 02:19:00,,0828.9,5.00,0.00,29.4,28.4,00.0,38.1,31.5,22.9,0000.0,0013.77,0006.47,0005.48
2022-08-19 02:20:00,,0828.9,4.99,0.00,29.5,28.5,00.0,38.2,31.5,22.6,0000.0,0013.96,0006.46,0005.47
2022-08-19 02:21:00,,0828.9,5.01,0.00,29.5,28.6,00.0,38.2,31.6,22.6,0000.0,0014.53,0006.48,0005.47
2022-08-19 02:22:00,,0828.9,5.00,0.00,29.6,28.4,00.0,38.2,31.5,22.5,0000.0,0014.85,0006.47,0005.45
2022-08-19 02:23:00,,0828.9,5.00,0.00,29.5,27.6,00.0,38.1,31.3,22.4,0000.0,0014.68,0006.46,0005.42
2022-08-19 02:24:00,,0828.9,5.00,0.00,29.4,27.1,00.0,38.1,31.2,22.5,0000.0,0015.16,0006.46,0005.40
2022-08-19 02:25:00,,0829.0,4.99,0.00,29.4,27.1,00.0,38.1,31.1,22.6,0000.0,0015.23,0006.42,0005.40
2022-08-19 02:26:00,,0829.0,5.00,0.00,29.3,27.2,00.0,38.1,31.1,22.7,0000.0,0015.11,0006.41,0005.41
2022-08-19 02:27:00,,0829.0,5.00,0.00,29.3,27.3,00.0,38.1,31.1,22.9,0000.0,0014.49,0006.36,0005.40
2022-08-19 02:28:00,,0829.0,4.99,0.00,29.3,27.5,00.0,38.1,31.1,23.0,0000.0,0014.07,0006.33,0005.39
2022-08-19 02:29:00,,0829.1,5.00,0.00,29.3,27.7,00.0,38.1,31.2,22.9,0000.0,0014.24,0006.34,0005.39
2022-08-19 02:30:00,,0829.1,5.00,0.00,29.3,27.9,00.0,38.1,31.3,23.0,0000.0,0014.09,0006.37,0005.38
2022-08-19 02:31:00,,0829.1,5.01,0.00,29.4,28.1,00.0,38.1,31.3,23.0,0000.0,0014.38,0006.38,0005.37
2022-08-19 02:32:00,,0829.1,5.00,0.00,29.4,28.2,00.0,38.1,31.4,23.1,0000.0,0014.26,0006.38,0005.37
2022-08-19 02:33:00,,0829.1,5.00,0.00,29.5,28.4,00.0,38.1,31.5,23.1,0000.0,0014.11,0006.38,0005.38
2022-08-19 02:34:00,,0829.1,5.00,0.00,29.5,28.5,00.0,38.2,31.5,23.1,0000.0,0014.39,0006.36,0005.39
2022-08-19 02:35:00,,0829.1,5.00,0.00,29.5,28.5,00.0,38.2,31.5,22.9,0000.0,0014.00,0006.34,0005.40
2022-08-19 02:36:00,,0829.1,4.99,0.00,29.5,27.9,00.0,38.1,31.3,23.0,0000.0,0013.89,0006.35,0005.40
2022-08-19 02:37:00,,0829.1,5.01,0.00,29.4,27.2,00.0,38.1,31.1,23.2,0000.0,0014.46,0006.35,0005.40
2022-08-19 02:38:00,,0829.1,5.01,0.00,29.4,27.0,00.0,38.1,31.1,23.1,0000.0,0014.78,0006.41,0005.40
2022-08-19 02:39:00,,0829.2,5.01,0.00,29.3,27.0,00.0,38.1,31.0,23.3,0000.0,0014.92,0006.48,0005.41
2022-08-19 02:40:00,,0829.3,4.99,0.00,29.2,27.2,00.0,38.1,31.0,23.3,0000.0,0015.31,0006.58,0005.42
2022-08-19 02:41:00,,0829.3,5.01,0.00,29.2,27.4,00.0,38.0,31.0,23.2,0000.0,0015.72,0006.63,0005.44
2022-08-19 02:42:00,,0829.3,5.00,0.00,29.3,27.6,00.0,38.0,31.1,23.3,0000.0,0015.64,0006.63,0005.45
2022-08-19 02:43:00,,0829.3,5.00,0.00,29.3,27.8,00.0,38.1,31.2,23.4,0000.0,0015.74,0006.62,0005.45
2022-08-19 02:44:00,,0829.2,5.00,0.00,29.3,28.0,00.0,38.1,31.3,23.2,0000.0,0015.44,0006.60,0005.46
2022-08-19 02:45:00,,0829.2,4.98,0.00,29.3,28.1,00.0,38.1,31.3,23.2,0000.0,0015.15,0006.61,0005.46
2022-08-19 02:46:00,,0829.4,5.00,0.00,29.4,28.3,00.0,38.1,31.4,23.3,0000.0,0015.48,0006.65,0005.47
2022-08-19 02:47:00,,0829.3,4.99,0.00,29.4,28.4,00.0,38.1,31.4,23.7,0000.0,0015.77,0006.71,0005.48
2022-08-19 02:48:00,,0829.3,5.00,0.00,29.5,28.5,00.0,38.1,31.5,24.1,0000.0,0015.02,0006.73,0005.51
2022-08-19 02:49:00,,0829.3,4.99,0.00,29.5,28.6,00.0,38.2,31.5,23.7,0000.0,0015.51,0006.72,0005.54
2022-08-19 02:50:00,,0829.4,5.01,0.00,29.5,28.2,00.0,38.1,31.4,23.5,0000.0,0015.98,0006.74,0005.57
2022-08-19 02:51:00,,0829.4,4.99,0.00,29.4,27.3,00.0,38.1,31.2,23.6,0000.0,0015.66,0006.70,0005.59
2022-08-19 02:52:00,,0829.5,5.01,0.00,29.4,27.0,00.0,38.1,31.1,24.0,0000.0,0015.75,0006.74,0005.63
2022-08-19 02:53:00,,0829.5,5.00,0.00,29.3,26.9,00.0,38.0,30.9,24.5,0000.0,0015.78,0006.76,0005.64
2022-08-19 02:54:00,,0829.5,5.01,0.00,29.2,27.1,00.0,38.0,30.9,24.3,0000.0,0015.19,0006.77,0005.66
2022-08-19 02:55:00,,0829.5,4.99,0.00,29.2,27.2,00.0,38.0,31.0,23.6,0000.0,0015.55,0006.81,0005.66
2022-08-19 02:56:00,,0829.5,5.00,0.00,29.2,27.4,00.0,38.0,31.1,23.5,0000.0,0015.48,0006.79,0005.65
2022-08-19 02:57:00,,0829.5,5.01,0.00,29.2,27.6,00.0,38.0,31.1,24.1,0000.0,0015.28,0006.75,0005.66
2022-08-19 02:58:00,,0829.5,4.99,0.00,29.3,27.8,00.0,38.0,31.2,23.6,0000.0,0015.84,0006.75,0005.67
2022-08-19 02:59:00,,0829.6,5.00,0.00,29.3,28.0,00.0,38.0,31.2,23.7,0000.0,0016.23,0006.75,0005.66
